Weather History for Jackson, WY

Change the Weather History Date:

Sunday, September 8, 2013

  Actual Average Record
Temperature  
Mean Temperature 58 °F -  
Max Temperature 69 °F 74 °F 87 °F (1979)
Min Temperature 46 °F 35 °F 24 °F (1964)
Degree Days  
Heating Degree Days 8    
Growing Degree Days 8 (Base 50)    
Moisture  
Dew Point 49 °F    
Average Humidity 84    
Maximum Humidity 100    
Minimum Humidity 46    
Precipitation  
Precipitation 0.01 in - - ()
Sea Level Pressure  
Sea Level Pressure 30.18 in    
Wind  
Wind Speed 3 mph (NNW)    
Max Wind Speed 14 mph    
Max Gust Speed 21 mph    
Visibility 10 miles    
Events Thunderstorm    
Averages and records for this station are not official NWS values.
T = Trace of Precipitation, MM = Missing Value Source: NWS Daily Summary

Daily Weather History Graph

Daily Weather History Graph

Search for Another Location

Airport:

Trip Planner

Search our weather history database for the weather conditions in past years. The results will help you decide how hot, cold, wet, or windy it might be!

Date:

Astronomy

Sep. 08, 2013 Rise Set
Actual Time 6:54 AM MDT 7:45 PM MDT
Civil Twilight 6:25 AM MDT 8:14 PM MDT
Nautical Twilight 5:51 AM MDT 8:48 PM MDT
Astronomical Twilight 5:14 AM MDT 9:24 PM MDT
Moon 10:24 AM MDT (9/8) 9:14 PM MDT (9/8)
Length of Visible Light 13h 48m
Length of Day
12h 50m
Waxing Crescent, 11% of the Moon is Illuminated
Sep 8
Waxing Crescent
Sep 12
First Quarter
Sep 19
Full
Sep 26
Last Quarter
Oct 4
New

Hourly Weather History & Observations

Time (MDT) Temp. Windchill Dew Point Humidity Pressure Visibility Wind Dir Wind Speed Gust Speed Precip Events Conditions
12:15 AM 53.6 °F - 48.2 °F 82% 30.23 in 10.0 mi Calm Calm - N/A   Clear
12:35 AM 53.6 °F - 50.0 °F 88% 30.22 in 10.0 mi Calm Calm - N/A   Clear
12:55 AM 51.8 °F - 50.0 °F 94% 30.22 in 10.0 mi NNE 3.5 mph - N/A   Clear
1:15 AM 51.8 °F - 48.2 °F 88% 30.21 in 10.0 mi NNW 8.1 mph - N/A   Clear
1:35 AM 51.8 °F - 50.0 °F 94% 30.21 in 10.0 mi North 8.1 mph - N/A   Mostly Cloudy
1:55 AM 53.6 °F - 50.0 °F 88% 30.21 in 10.0 mi NNE 5.8 mph - N/A   Overcast
2:16 AM 53.6 °F - 50.0 °F 88% 30.21 in 10.0 mi Calm Calm - N/A   Overcast
2:55 AM 53.6 °F - 50.0 °F 88% 30.21 in 10.0 mi Calm Calm - N/A   Overcast
3:15 AM 53.6 °F - 48.2 °F 82% 30.21 in 10.0 mi Calm Calm - N/A   Overcast
3:35 AM 53.6 °F - 51.8 °F 94% 30.21 in 10.0 mi Calm Calm - N/A   Overcast
3:55 AM 53.6 °F - 51.8 °F 94% 30.22 in 10.0 mi Calm Calm - N/A   Overcast
4:15 AM 53.6 °F - 50.0 °F 88% 30.21 in 10.0 mi Calm Calm - N/A   Mostly Cloudy
4:35 AM 53.6 °F - 50.0 °F 88% 30.21 in 10.0 mi ENE 3.5 mph - N/A   Clear
4:55 AM 51.8 °F - 48.2 °F 88% 30.21 in 10.0 mi ENE 4.6 mph - N/A   Clear
5:15 AM 51.8 °F - 48.2 °F 88% 30.21 in 10.0 mi Calm Calm - N/A   Clear
5:35 AM 51.8 °F - 48.2 °F 88% 30.22 in 10.0 mi Calm Calm - N/A   Clear
6:15 AM 48.2 °F - 48.2 °F 100% 30.21 in 10.0 mi ENE 3.5 mph - N/A   Clear
6:35 AM 46.4 °F 43.5 °F 44.6 °F 93% 30.21 in 10.0 mi WNW 5.8 mph - N/A   Clear
6:51 AM 48.2 °F - 48.2 °F 100% 30.21 in 10.0 mi Calm Calm - N/A   Clear
7:51 AM 48.2 °F - 46.4 °F 93% 30.21 in 10.0 mi Calm Calm - N/A   Clear
8:51 AM 51.8 °F - 48.2 °F 88% 30.21 in 10.0 mi Calm Calm - N/A   Clear
9:55 AM 53.6 °F - 51.8 °F 94% 30.22 in 10.0 mi Calm Calm - N/A   Clear
10:53 AM 55.4 °F - 51.8 °F 88% 30.21 in 10.0 mi Calm Calm - N/A   Clear
11:51 AM 59.0 °F - 51.8 °F 77% 30.20 in 10.0 mi SW 4.6 mph - N/A   Clear
12:51 PM 60.8 °F - 51.8 °F 72% 30.18 in 10.0 mi SSW 6.9 mph - N/A   Clear
1:52 PM 64.4 °F - 51.8 °F 64% 30.16 in 10.0 mi SSW 4.6 mph - N/A   Partly Cloudy
3:51 PM 69.8 °F - 48.2 °F 46% 30.10 in 10.0 mi SSW 10.4 mph - N/A   Partly Cloudy
4:51 PM 66.2 °F - 48.2 °F 52% 30.08 in 10.0 mi SSW 11.5 mph - N/A   Scattered Clouds
5:51 PM 64.4 °F - 48.2 °F 56% 30.08 in 10.0 mi SSW 5.8 mph - N/A Thunderstorm Mostly Cloudy
6:52 PM 62.6 °F - 44.6 °F 52% 30.08 in 10.0 mi South 12.7 mph - N/A   Scattered Clouds
7:51 PM 57.2 °F - 37.4 °F 48% 30.09 in 10.0 mi SW 8.1 mph - N/A Thunderstorm Thunderstorm
8:51 PM 53.6 °F - 48.2 °F 82% 30.14 in 10.0 mi East 13.8 mph - N/A Thunderstorm Thunderstorm
9:15 PM 51.8 °F - 48.2 °F 88% 30.14 in 10.0 mi NW 3.5 mph 20.7 mph N/A   Scattered Clouds
9:35 PM 51.8 °F - 48.2 °F 88% 30.14 in 10.0 mi West 8.1 mph - N/A   Scattered Clouds
9:55 PM 50.0 °F - 48.2 °F 94% 30.13 in 9.0 mi NNW 5.8 mph - 0.01 in   Mostly Cloudy
10:15 PM 51.8 °F - 48.2 °F 88% 30.13 in 10.0 mi NE 4.6 mph - N/A   Mostly Cloudy
10:35 PM 51.8 °F - 48.2 °F 88% 30.13 in 10.0 mi NNE 3.5 mph - N/A   Mostly Cloudy
10:55 PM 51.8 °F - 48.2 °F 88% 30.13 in 10.0 mi Calm Calm - N/A   Overcast
11:15 PM 48.2 °F - 48.2 °F 100% 30.13 in 10.0 mi Calm Calm - N/A   Overcast
11:35 PM 48.2 °F - 46.4 °F 93% 30.12 in 10.0 mi Calm Calm - N/A   Partly Cloudy
11:55 PM 48.2 °F - 46.4 °F 93% 30.12 in 10.0 mi Calm Calm - N/A   Clear